Location: *
(58.4167°N, 22.5000°E)
Time: 13:32:56
(UTC+00:00)

Cosmos 1954 Rocket - Pass Details

Date: 22 September 2019
Orbit: 753 x 781 km, 74.0° (Epoch: 19 October)

Event Time Altitude Azimuth Distance (km) Brightness Sun altitude
Rises 17:41:35 0° 328° (NNW) 3,251 8.1 -10.0°
Reaches altitude 10° 17:43:59 10° 327° (NNW) 2,317 7.3 -10.3°
Maximum altitude 17:49:13 75° 244° (WSW) 794 4.2 -10.9°
Drops below altitude 10° 17:54:23 10° 159° (SSE) 2,285 6.1 -11.6°
Enters shadow 17:55:50 - 159° (SSE) 2,849 6.6 -11.8°
